Showing default

KUIPER-00420, 68932

Orbit data source: Space-Track

KUIPER-00420, 68932 is a payload satellite owned by Kuiper Systems (US) in LEO that was launched on Thu, 30 Apr 2026 UTC via an ARIANE 64 launch vehicle from the French Guiana (FRGUI). Payload-class satellites include a variety of spacecraft equipped with specific instruments for various scientific and technological missions. These include communications satellites like Starlink; space stations such as the ISS; scientific satellites like the Hubble; Earth observation satellites from companies like Planet Labs, Umbra, and HawkEye 360; GPS; miniature CubeSats for education and research; and military/defense satellites.

Loading next visibility...
Identifier
68932, 2026-098P
Orbit
LEO
Country
Flag of USUS
Related business
Manufacturer
Kuiper Systems
Mission
Operational spacecraft
Bus & Motor
KUIPER, Unknown motor
Mass
~490 kg wet, ~490 kg dry
Launch date (UTC)
2026-04-30 (2 months ago)
Launch vehicle
ARIANE 64
Launch site
French Guiana (FRGUI)
Object type
Payload
Rocket body
Debris
Shape & HBR
Unknown shape, 3.4 m
Radar Cross Section
Large (>1 m²)

Expand to show TLE details & history
Last TLE update: 11 hours ago

TLE from 11 hours ago
0 KUIPER-00420
1 68932U 26098P   26171.39801015  .00026926  00000-0  76644-3 0  9992
2 68932  51.8781  52.0388 0003117 184.6401 175.4557 15.35920537  7845
Epoch: 2026-06-20T09:33Z
TLE epoch observation values (Epoch: 2026-06-20T09:33:08.076Z)
Latitude
-0.00003°
Longitude
0.14192°
Altitude
461.075 km
Speed
7.636 km/s
True Right ascension
03h 28m 09s
True Declination
0° 00' 00"
Sunlit
Object was in daylight at epoch
Visualization orbit readout
Latitude
Unknown
Longitude
Unknown
Altitude
Unknown
Speed
Unknown
Apparent Right ascension
Unknown
Apparent Declination
Unknown
Sunlit
N/A
Visualization observer readout
Local Sidereal Time
07:21:01
Azimuth
Unknown
Elevation
Unknown
Doppler factor
Unknown
Orbital elements
Apogee altitude
460.784 km
Perigee altitude
456.522 km
Semi-major axis
6,836.79 km
Eccentricity
0.00031
Inclination
51.8781°
RAAN
52.0388°
Arg. of periapsis
184.6401°
True anomaly
175.45853°
Mean anomaly
175.4557°
Eccentric anomaly
175.45711°
Mean motion
3.83941 °/min
Orbital period
93.76 mins
BSTAR
0.00076644
Loading maneuver chart data...
Computing Atmospheric mass density...
Loading historical data...
Loading historical data...
Loading historical data...
Loading historical data...
Loading historical data...
Loading historical data...
Loading historical data...

Documentation

Showing up to 5 results
|